KD8BMB Weather Reports


time (UTC)temp
C
wind
direction
speed
KPH
gust
KPH
rain 1hr
cm
rain 24hr
cm
rain mn
cm
humidity
%
barometer
mb
20260502191430 8 201 6.4 9.7 0.00 0.00 0.00 43 1016.7
20260502190927 8 331 1.6 1.6 0.00 0.00 0.00 41 1016.4
20260502190424 8 1 0.0 0.0 0.00 0.00 0.00 42 1016.7
20260502185920 8 345 6.4 9.7 0.00 0.00 0.00 42 1016.8
20260502185416 8 290 3.2 8.0 0.00 0.00 0.00 44 1016.9
20260502184913 8 334 0.0 0.0 0.00 0.00 0.00 44 1017.0
20260502184409 8 287 4.8 4.8 0.00 0.00 0.00 45 1016.9
20260502183905 8 268 8.0 11.3 0.00 0.00 0.00 44 1016.7
20260502183401 8 277 4.8 11.3 0.00 0.00 0.00 44 1016.8
20260502182857 8 250 3.2 3.2 0.00 0.00 0.00 45 1017.1
20260502182353 8 246 4.8 8.0 0.00 0.00 0.00 43 1016.9
20260502181849 8 34 6.4 8.0 0.00 0.00 0.00 42 1017.0
20260502181348 8 327 4.8 11.3 0.00 0.00 0.00 46 1017.2
20260502180845 8 330 1.6 3.2 0.00 0.00 0.00 47 1017.2
20260502180342 8 220 14.5 20.9 0.00 0.00 0.00 46 1017.2
20260502170301 6 295 1.6 3.2 0.00 0.00 0.00 51 1017.8
20260502164249 7 278 12.9 16.1 0.00 0.00 0.00 53 1018.1
20260502163744 7 292 1.6 3.2 0.00 0.00 0.00 53 1017.9
20260502163241 6 319 1.6 1.6 0.00 0.00 0.00 56 1018.0
20260502162738 6 0 0.0 0.0 0.00 0.00 0.00 56 1017.9
20260502162235 7 291 4.8 8.0 0.00 0.00 0.00 54 1018.0
20260502161732 7 329 4.8 8.0 0.00 0.00 0.00 52 1018.0
20260502161228 7 331 4.8 4.8 0.00 0.00 0.00 52 1018.1
20260502160726 6 267 3.2 3.2 0.00 0.00 0.00 54 1018.0
20260502160225 6 308 6.4 11.3 0.00 0.00 0.00 55 1018.1
20260502152149 6 314 3.2 4.8 0.00 0.00 0.00 53 1018.1
20260502151647 6 334 12.9 16.1 0.00 0.00 0.00 55 1018.3
20260502151144 6 355 4.8 4.8 0.00 0.00 0.00 53 1018.1
20260502150641 5 293 1.6 3.2 0.00 0.00 0.00 54 1018.4
20260502150137 5 341 3.2 3.2 0.00 0.00 0.00 56 1018.1
20260502130526 4 300 1.6 3.2 0.00 0.00 0.00 73 1018.5
20260502123509 3 303 3.2 4.8 0.00 0.00 0.00 78 1018.6
20260502123005 3 249 4.8 8.0 0.00 0.00 0.00 77 1018.5
20260502122502 3 34 3.2 3.2 0.00 0.00 0.00 78 1018.6
20260502122000 3 325 6.4 9.7 0.00 0.00 0.00 79 1018.6
20260502121457 2 347 3.2 3.2 0.00 0.00 0.00 79 1018.7
20260502120954 2 303 1.6 1.6 0.00 0.00 0.00 79 1018.5
20260502120450 2 39 3.2 3.2 0.00 0.00 0.00 80 1018.5
20260502115445 2 313 3.2 8.0 0.00 0.00 0.00 81 1018.6
20260502114941 2 339 1.6 1.6 0.00 0.00 0.00 82 1018.4
20260502114437 2 40 1.6 1.6 0.00 0.00 0.00 82 1018.6
20260502113935 1 304 3.2 3.2 0.00 0.00 0.00 83 1018.6
20260502113432 1 309 8.0 9.7 0.00 0.00 0.00 83 1018.5
20260502112931 1 279 1.6 1.6 0.00 0.00 0.00 84 1018.4
20260502112428 1 311 0.0 0.0 0.00 0.00 0.00 85 1018.5
20260502111926 1 307 4.8 4.8 0.00 0.00 0.00 88 1018.4
20260502111422 0 305 0.0 0.0 0.00 0.00 0.00 89 1018.2
20260502110920 0 284 0.0 0.0 0.00 0.00 0.00 90 1018.4
20260502110418 0 289 0.0 0.0 0.00 0.00 0.00 90 1018.4
20260502105915 0 303 1.6 1.6 0.00 0.00 0.00 91 1018.5
20260502105412 0 292 0.0 0.0 0.00 0.00 0.00 91 1018.3
20260502104909 0 310 0.0 0.0 0.00 0.00 0.00 91 1018.3
20260502104407 0 314 1.6 3.2 0.00 0.00 0.00 92 1018.0
20260502103904 0 317 3.2 3.2 0.00 0.00 0.00 94 1018.2
20260502103402 0 281 0.0 0.0 0.00 0.00 0.00 94 1017.9
20260502102858 0 297 0.0 0.0 0.00 0.00 0.00 94 1018.2
20260502102355 0 303 0.0 0.0 0.00 0.00 0.00 95 1018.0
20260502101852 0 304 0.0 0.0 0.00 0.00 0.00 94 1018.0
20260502101350 0 311 0.0 0.0 0.00 0.00 0.00 94 1018.0
20260502100848 0 328 0.0 0.0 0.00 0.00 0.00 94 1018.1
20260502100348 0 331 0.0 0.0 0.00 0.00 0.00 94 1017.9
20260502091321 1 307 0.0 0.0 0.00 0.00 0.00 96 1017.7
20260502090819 1 324 1.6 1.6 0.00 0.00 0.00 97 1017.6
20260502090315 1 274 1.6 1.6 0.00 0.00 0.00 98 1017.8
20260502071211 2 315 0.0 0.0 0.00 0.00 0.00 93 1017.2
20260502070709 2 315 0.0 0.0 0.00 0.00 0.00 93 1017.4
20260502070206 2 312 0.0 0.0 0.00 0.00 0.00 92 1017.5
20260502065704 2 315 0.0 0.0 0.00 0.00 0.00 91 1017.5
20260502065202 2 328 0.0 0.0 0.00 0.00 0.00 91 1017.5
20260502064701 2 312 0.0 0.0 0.00 0.00 0.00 91 1017.5
20260502064157 2 313 0.0 0.0 0.00 0.00 0.00 90 1017.5
20260502063655 2 334 0.0 0.0 0.00 0.00 0.00 90 1017.2
20260502063153 2 334 0.0 0.0 0.00 0.00 0.00 89 1017.7
20260502062649 2 11 0.0 0.0 0.00 0.00 0.00 90 1017.6
20260502062147 2 347 0.0 0.0 0.00 0.00 0.00 89 1017.5
20260502061645 2 310 0.0 0.0 0.00 0.00 0.00 89 1017.6
20260502061142 2 16 0.0 0.0 0.00 0.00 0.00 89 1017.5
20260502060643 2 16 0.0 0.0 0.00 0.00 0.00 90 1017.7
20260502060140 2 336 0.0 0.0 0.00 0.00 0.00 90 1017.8
20260502055637 2 316 0.0 0.0 0.00 0.00 0.00 89 1017.5
20260502055135 3 308 0.0 0.0 0.00 0.00 0.00 89 1017.6
20260502054634 3 88 0.0 0.0 0.00 0.00 0.00 89 1017.5
20260502054131 2 57 0.0 0.0 0.00 0.00 0.00 89 1017.5
20260502053628 2 315 0.0 0.0 0.00 0.00 0.00 89 1017.8
20260502053125 3 316 0.0 0.0 0.00 0.00 0.00 88 1017.5
20260502052623 3 105 0.0 0.0 0.00 0.00 0.00 88 1017.6
20260502052122 3 88 0.0 0.0 0.00 0.00 0.00 88 1017.5
20260502051619 3 118 3.2 3.2 0.00 0.00 0.00 88 1017.5
20260502051117 3 322 0.0 0.0 0.00 0.00 0.00 87 1017.8
20260502050614 3 46 0.0 1.6 0.00 0.00 0.00 87 1017.5
20260502050110 3 72 0.0 0.0 0.00 0.00 0.00 87 1017.6
20260502045606 3 66 4.8 4.8 0.00 0.00 0.00 87 1017.2
20260502045104 3 61 4.8 8.0 0.00 0.00 0.00 87 1017.5
20260502044600 3 73 4.8 4.8 0.00 0.00 0.00 87 1017.4
20260502044057 3 68 1.6 3.2 0.00 0.00 0.00 87 1017.2
20260502043555 3 65 1.6 3.2 0.00 0.00 0.00 86 1017.2
20260502043050 3 52 1.6 3.2 0.00 0.00 0.00 86 1017.4
20260502042545 3 37 1.6 3.2 0.00 0.00 0.00 86 1017.2
20260502042043 3 39 1.6 1.6 0.00 0.00 0.00 86 1017.0
20260502041541 3 69 1.6 1.6 0.00 0.00 0.00 85 1017.4
20260502041038 3 81 3.2 4.8 0.00 0.00 0.00 86 1017.1
20260502040534 3 75 1.6 3.2 0.00 0.00 0.00 86 1017.1
20260502040031 3 67 0.0 0.0 0.00 0.00 0.00 86 1017.1
20260502035527 3 136 0.0 1.6 0.00 0.00 0.00 86 1017.0
20260502035025 3 87 1.6 3.2 0.00 0.00 0.00 86 1017.0
20260502034523 3 58 1.6 1.6 0.00 0.00 0.00 85 1016.8
20260502034021 4 57 4.8 8.0 0.00 0.00 0.00 82 1016.8
20260502033519 4 51 1.6 1.6 0.00 0.00 0.00 80 1016.8
20260502033016 4 25 1.6 3.2 0.00 0.00 0.00 77 1016.8
20260502032511 5 50 4.8 4.8 0.00 0.00 0.00 73 1016.8
20260502032009 5 17 3.2 3.2 0.00 0.00 0.00 67 1016.5
20260502031507 5 355 0.0 0.0 0.00 0.00 0.00 64 1016.8
20260502031004 5 325 0.0 0.0 0.00 0.00 0.00 63 1016.5
20260502030503 5 312 3.2 4.8 0.00 0.00 0.00 61 1016.4
20260502030000 5 39 0.0 0.0 0.00 0.00 0.00 62 1016.5
20260502025457 5 317 0.0 0.0 0.00 0.00 0.00 61 1016.8
20260502024955 5 351 0.0 0.0 0.00 0.00 0.00 61 1016.4
20260502024452 5 328 1.6 3.2 0.00 0.00 0.00 61 1016.5
20260502023951 5 307 4.8 4.8 0.00 0.00 0.00 60 1016.5
20260502023448 5 321 0.0 0.0 0.00 0.00 0.00 60 1016.5
20260502022945 5 354 0.0 0.0 0.00 0.00 0.00 60 1016.5
20260502022441 5 280 1.6 3.2 0.00 0.00 0.00 60 1016.5
20260502021938 5 332 3.2 4.8 0.00 0.00 0.00 60 1016.6
20260502021436 5 299 6.4 9.7 0.00 0.00 0.00 61 1016.6
20260502020933 5 331 0.0 0.0 0.00 0.00 0.00 61 1016.3
20260502020431 5 330 1.6 3.2 0.00 0.00 0.00 60 1016.3
20260502015927 5 310 0.0 0.0 0.00 0.00 0.00 61 1016.5
20260502015425 5 299 4.8 8.0 0.00 0.00 0.00 63 1016.3
20260502014921 5 309 0.0 0.0 0.00 0.00 0.00 66 1016.0
20260502014419 5 340 0.0 0.0 0.00 0.00 0.00 65 1016.3
20260502013915 5 328 0.0 0.0 0.00 0.00 0.00 65 1016.2
20260502013410 5 314 0.0 0.0 0.00 0.00 0.00 66 1015.9
20260502012907 5 312 0.0 0.0 0.00 0.00 0.00 65 1016.0
20260502012405 5 332 0.0 0.0 0.00 0.00 0.00 64 1016.0
20260502011902 5 326 3.2 4.8 0.00 0.00 0.00 64 1016.0
20260502011358 5 359 0.0 3.2 0.00 0.00 0.00 63 1015.9
20260502010855 5 22 4.8 8.0 0.00 0.00 0.00 63 1016.0
20260502010352 5 318 0.0 0.0 0.00 0.00 0.00 63 1015.9
20260502005849 5 353 1.6 1.6 0.00 0.00 0.00 62 1015.8
20260502005347 5 308 4.8 8.0 0.00 0.00 0.00 63 1015.5
20260502004844 5 329 0.0 0.0 0.00 0.00 0.00 64 1015.6
20260502004340 5 20 0.0 0.0 0.00 0.00 0.00 64 1015.6
20260502003838 6 25 0.0 0.0 0.00 0.00 0.00 64 1015.7
20260502003334 5 30 1.6 1.6 0.00 0.00 0.00 64 1015.7
20260502002831 6 340 1.6 3.2 0.00 0.00 0.00 64 1015.7
20260502002328 6 299 1.6 4.8 0.00 0.00 0.00 64 1015.5
20260502001825 6 67 3.2 4.8 0.00 0.00 0.00 63 1015.6
20260502001323 6 58 1.6 4.8 0.00 0.00 0.00 64 1015.4
20260502000820 6 355 0.0 1.6 0.00 0.00 0.00 64 1015.3
20260502000318 6 30 3.2 9.7 0.00 0.00 0.00 63 1015.3
20260501235814 6 42 4.8 8.0 0.00 0.00 0.00 60 1015.2
20260501235310 6 22 1.6 3.2 0.00 0.00 0.00 60 1015.3
20260501234805 6 234 0.0 1.6 0.00 0.00 0.00 61 1015.1
20260501234303 6 308 8.0 11.3 0.00 0.00 0.00 59 1015.1
20260501233801 6 306 1.6 3.2 0.00 0.00 0.00 61 1015.0
20260501233258 6 324 3.2 9.7 0.00 0.00 0.00 64 1014.9
20260501232754 6 353 1.6 3.2 0.00 0.00 0.00 65 1015.1
20260501232251 6 341 11.3 14.5 0.00 0.00 0.00 64 1014.9
20260501231749 7 331 4.8 8.0 0.00 0.00 0.00 62 1015.1
20260501231247 7 358 3.2 3.2 0.00 0.00 0.00 62 1014.8
20260501230745 7 291 1.6 1.6 0.00 0.00 0.00 61 1015.0
20260501230243 7 268 0.0 1.6 0.00 0.00 0.00 61 1015.0
20260501225740 7 288 1.6 3.2 0.00 0.00 0.00 64 1015.1
20260501225238 7 77 0.0 0.0 0.00 0.00 0.00 62 1015.0
20260501224733 7 325 0.0 0.0 0.00 0.00 0.00 64 1014.9
20260501224231 7 250 1.6 1.6 0.00 0.00 0.00 63 1015.0
20260501223727 7 3 0.0 0.0 0.00 0.00 0.00 65 1015.0
20260501223224 6 281 0.0 0.0 0.00 0.00 0.00 64 1015.0
20260501222720 6 33 0.0 0.0 0.00 0.00 0.00 64 1015.0
20260501222217 7 246 0.0 0.0 0.00 0.00 0.00 65 1015.2
20260501221714 7 321 0.0 0.0 0.00 0.00 0.00 65 1015.1
20260501221211 7 3 0.0 0.0 0.00 0.00 0.00 64 1015.1
20260501220709 7 297 0.0 0.0 0.00 0.00 0.00 66 1015.0
20260501220206 7 20 0.0 0.0 0.00 0.00 0.00 66 1015.0
20260501215703 6 11 1.6 3.2 0.00 0.00 0.00 67 1015.0
20260501215158 6 33 1.6 1.6 0.00 0.00 0.00 66 1015.1
20260501214653 7 59 0.0 1.6 0.00 0.00 0.00 67 1015.0
20260501214149 6 32 0.0 1.6 0.00 0.00 0.00 67 1014.8
20260501213646 7 313 1.6 3.2 0.00 0.00 0.00 66 1014.9
20260501213142 6 26 3.2 4.8 0.00 0.00 0.00 67 1014.9
20260501212639 6 50 4.8 4.8 0.00 0.00 0.00 67 1014.9
20260501212135 7 330 3.2 3.2 0.00 0.00 0.00 67 1014.8
20260501211632 7 302 0.0 0.0 0.00 0.00 0.00 67 1014.8
20260501211130 7 52 0.0 0.0 0.00 0.00 0.00 65 1014.7
20260501210626 7 85 1.6 3.2 0.00 0.00 0.00 62 1014.7
20260501210123 7 62 0.0 1.6 0.00 0.00 0.00 60 1014.6
20260501205619 7 305 3.2 8.0 0.00 0.00 0.00 62 1014.7
20260501205117 7 336 0.0 0.0 0.00 0.00 0.00 62 1014.6
20260501204613 7 293 9.7 11.3 0.00 0.00 0.00 61 1014.7
20260501204109 7 220 0.0 1.6 0.00 0.00 0.00 62 1014.4
20260501203606 7 253 1.6 3.2 0.00 0.00 0.00 61 1014.6
20260501203104 7 4 0.0 0.0 0.00 0.00 0.00 63 1014.7
20260501202601 7 12 0.0 1.6 0.00 0.00 0.00 63 1014.9
20260501202057 7 305 0.0 0.0 0.00 0.00 0.00 64 1014.8
20260501201554 7 322 0.0 0.0 0.00 0.00 0.00 64 1014.7
20260501201050 7 315 8.0 11.3 0.00 0.00 0.00 63 1014.9
20260501200548 7 294 6.4 8.0 0.00 0.00 0.00 63 1014.6
20260501200045 7 336 6.4 8.0 0.00 0.00 0.00 63 1014.7
20260501195543 7 356 1.6 4.8 0.00 0.00 0.00 64 1014.8
20260501195038 7 349 4.8 8.0 0.00 0.00 0.00 63 1014.6
20260501194533 7 58 4.8 8.0 0.00 0.00 0.00 63 1014.7
20260501194030 7 31 1.6 3.2 0.00 0.00 0.00 65 1014.7
20260501193527 7 350 1.6 4.8 0.00 0.00 0.00 64 1014.7
20260501193026 7 271 6.4 8.0 0.00 0.00 0.00 64 1014.9
20260501192522 7 332 1.6 3.2 0.00 0.00 0.00 64 1014.7
20260501192020 7 57 1.6 3.2 0.00 0.00 0.00 64 1014.7
20260501191517 7 29 1.6 3.2 0.00 0.00 0.00 63 1014.6